• In Schweiz
  • Länderverzeichnis
  • Für 7 Tage
  • Wassertemperatur
  • Satellitenkarten
  • Wetterkarte
  • Widgets
  • user-avatar
    Anmelden

    Stündliche Wetter Serdytsya

    Heute, 22 September, Samstag

    Zeit Temperatur Niederschläge Wind Luftdruck Luftfeuchtigkeit
    00:00 +17°C° 0 mm 3 m/S 735 mmHg 70%
    01:00 +17°C° 0 mm 3 m/S 735 mmHg 69%
    02:00 +17°C° 0 mm 3 m/S 735 mmHg 67%
    03:00 +17°C° 0 mm 3 m/S 734 mmHg 65%
    04:00 +17°C° 0 mm 3 m/S 734 mmHg 62%
    05:00 +17°C° 0 mm 3 m/S 734 mmHg 59%
    06:00 +17°C° 0 mm 4 m/S 735 mmHg 62%
    07:00 +17°C° 0 mm 4 m/S 736 mmHg 64%
    08:00 +17°C° 0 mm 5 m/S 736 mmHg 66%
    09:00 +17°C° 0.2 mm 4 m/S 737 mmHg 72%
    10:00 +15°C° 0.2 mm 4 m/S 737 mmHg 77%
    11:00 +14°C° 0.2 mm 4 m/S 738 mmHg 83%
    12:00 +13°C° 0.3 mm 4 m/S 738 mmHg 83%
    13:00 +13°C° 0.3 mm 4 m/S 738 mmHg 83%
    14:00 +13°C° 0.3 mm 4 m/S 739 mmHg 84%
    15:00 +12°C° 0.9 mm 3 m/S 739 mmHg 86%
    16:00 +12°C° 0.9 mm 3 m/S 739 mmHg 88%
    17:00 +12°C° 0.9 mm 2 m/S 738 mmHg 90%
    18:00 +10°C° 0.1 mm 2 m/S 739 mmHg 91%
    19:00 +10°C° 0.1 mm 2 m/S 739 mmHg 92%
    20:00 +9°C° 0.1 mm 2 m/S 739 mmHg 93%
    21:00 +9°C° 0 mm 2 m/S 739 mmHg 90%
    22:00 +9°C° 0 mm 2 m/S 739 mmHg 87%
    23:00 +9°C° 0 mm 2 m/S 739 mmHg 85%

    Morgen, 23 September, Sonntag

    Zeit Temperatur Niederschläge Wind Luftdruck Luftfeuchtigkeit
    00:00 +8°C° 0 mm 2 m/S 739 mmHg 85%
    01:00 +8°C° 0 mm 2 m/S 739 mmHg 85%
    02:00 +8°C° 0 mm 2 m/S 739 mmHg 85%
    03:00 +8°C° 0 mm 2 m/S 739 mmHg 86%
    04:00 +8°C° 0 mm 2 m/S 739 mmHg 87%
    05:00 +8°C° 0 mm 2 m/S 738 mmHg 88%
    06:00 +9°C° 0 mm 3 m/S 738 mmHg 85%
    07:00 +10°C° 0 mm 3 m/S 739 mmHg 82%
    08:00 +11°C° 0 mm 3 m/S 739 mmHg 80%
    09:00 +12°C° 0 mm 4 m/S 739 mmHg 72%
    10:00 +14°C° 0 mm 4 m/S 738 mmHg 65%
    11:00 +17°C° 0 mm 4 m/S 738 mmHg 58%
    12:00 +16°C° 0.1 mm 5 m/S 738 mmHg 58%
    13:00 +16°C° 0.1 mm 5 m/S 738 mmHg 58%
    14:00 +16°C° 0.1 mm 5 m/S 737 mmHg 58%
    15:00 +17°C° 0 mm 4 m/S 737 mmHg 61%
    16:00 +17°C° 0 mm 4 m/S 737 mmHg 64%
    17:00 +16°C° 0 mm 3 m/S 736 mmHg 68%
    18:00 +14°C° 0 mm 3 m/S 736 mmHg 70%
    19:00 +13°C° 0 mm 3 m/S 735 mmHg 71%
    20:00 +13°C° 0 mm 4 m/S 735 mmHg 73%
    21:00 +13°C° 0.1 mm 4 m/S 734 mmHg 71%
    22:00 +13°C° 0.1 mm 4 m/S 733 mmHg 69%
    23:00 +13°C° 0.1 mm 4 m/S 733 mmHg 67%

    übermorgen, 24 September, Montag

    Zeit Temperatur Niederschläge Wind Luftdruck Luftfeuchtigkeit
    00:00 +13°C° 0.1 mm 5 m/S 731 mmHg 67%
    01:00 +14°C° 0.1 mm 5 m/S 730 mmHg 67%
    02:00 +14°C° 0.1 mm 6 m/S 729 mmHg 67%
    03:00 +14°C° 0.4 mm 6 m/S 727 mmHg 70%
    04:00 +15°C° 0.4 mm 7 m/S 726 mmHg 74%
    05:00 +15°C° 0.4 mm 7 m/S 725 mmHg 77%
    06:00 +15°C° 0.7 mm 8 m/S 725 mmHg 77%
    07:00 +15°C° 0.7 mm 8 m/S 725 mmHg 78%
    08:00 +15°C° 0.7 mm 9 m/S 725 mmHg 79%
    09:00 +12°C° 0.1 mm 9 m/S 727 mmHg 78%
    10:00 +11°C° 0.1 mm 10 m/S 729 mmHg 76%
    11:00 +8°C° 0.1 mm 11 m/S 730 mmHg 75%
    12:00 +8°C° 0.1 mm 11 m/S 732 mmHg 73%
    13:00 +9°C° 0.1 mm 11 m/S 733 mmHg 71%
    14:00 +9°C° 0.1 mm 10 m/S 734 mmHg 69%
    15:00 +9°C° 0.2 mm 10 m/S 735 mmHg 69%
    16:00 +10°C° 0.2 mm 9 m/S 735 mmHg 68%
    17:00 +8°C° 0.2 mm 9 m/S 736 mmHg 68%
    18:00 +9°C° 0 mm 8 m/S 736 mmHg 67%
    19:00 +8°C° 0 mm 7 m/S 737 mmHg 66%
    20:00 +6°C° 0 mm 7 m/S 737 mmHg 65%
    21:00 +6°C° 0 mm 7 m/S 738 mmHg 67%
    22:00 +6°C° 0 mm 7 m/S 738 mmHg 69%
    23:00 +6°C° 0 mm 8 m/S 738 mmHg 71%

    25 September, Dienstag

    Zeit Temperatur Niederschläge Wind Luftdruck Luftfeuchtigkeit
    00:00 +5°C° 0 mm 8 m/S 739 mmHg 71%
    01:00 +5°C° 0 mm 7 m/S 740 mmHg 72%
    02:00 +5°C° 0 mm 7 m/S 740 mmHg 72%
    03:00 +4°C° 0 mm 7 m/S 741 mmHg 73%
    04:00 +4°C° 0 mm 6 m/S 741 mmHg 73%
    05:00 +3°C° 0 mm 6 m/S 742 mmHg 74%
    06:00 +4°C° 0 mm 6 m/S 742 mmHg 73%
    07:00 +4°C° 0 mm 7 m/S 743 mmHg 72%
    08:00 +5°C° 0 mm 7 m/S 744 mmHg 71%
    09:00 +6°C° 0.1 mm 7 m/S 744 mmHg 66%
    10:00 +7°C° 0.1 mm 8 m/S 744 mmHg 61%
    11:00 +9°C° 0.1 mm 8 m/S 745 mmHg 56%
    12:00 +9°C° 0.2 mm 8 m/S 745 mmHg 55%
    13:00 +9°C° 0.2 mm 8 m/S 745 mmHg 54%
    14:00 +10°C° 0.2 mm 8 m/S 745 mmHg 53%
    15:00 +9°C° 0.1 mm 7 m/S 745 mmHg 56%
    16:00 +9°C° 0.1 mm 6 m/S 746 mmHg 59%
    17:00 +8°C° 0.1 mm 5 m/S 746 mmHg 62%
    18:00 +7°C° 0 mm 5 m/S 746 mmHg 65%
    19:00 +6°C° 0 mm 4 m/S 747 mmHg 68%
    20:00 +5°C° 0 mm 3 m/S 747 mmHg 71%
    21:00 +4°C° 0 mm 3 m/S 747 mmHg 71%
    22:00 +4°C° 0 mm 3 m/S 747 mmHg 71%
    23:00 +4°C° 0 mm 4 m/S 747 mmHg 71%

    26 September, Mittwoch

    Zeit Temperatur Niederschläge Wind Luftdruck Luftfeuchtigkeit
    00:00 +4°C° 0 mm 4 m/S 747 mmHg 69%
    01:00 +4°C° 0 mm 4 m/S 746 mmHg 67%
    02:00 +3°C° 0 mm 5 m/S 746 mmHg 66%
    03:00 +5°C° 0 mm 5 m/S 746 mmHg 64%
    04:00 +4°C° 0 mm 6 m/S 746 mmHg 63%
    05:00 +4°C° 0 mm 6 m/S 745 mmHg 61%
    06:00 +5°C° 0 mm 7 m/S 745 mmHg 62%
    07:00 +5°C° 0 mm 8 m/S 745 mmHg 62%
    08:00 +5°C° 0 mm 8 m/S 744 mmHg 62%
    09:00 +6°C° 0.6 mm 8 m/S 744 mmHg 67%
    10:00 +6°C° 0.6 mm 8 m/S 744 mmHg 73%
    11:00 +6°C° 0.6 mm 8 m/S 744 mmHg 78%
    12:00 +6°C° 0.4 mm 8 m/S 744 mmHg 79%
    13:00 +8°C° 0.4 mm 7 m/S 744 mmHg 79%
    14:00 +8°C° 0.4 mm 7 m/S 744 mmHg 80%
    15:00 +9°C° 0.2 mm 6 m/S 744 mmHg 78%
    16:00 +9°C° 0.2 mm 5 m/S 744 mmHg 77%
    17:00 +9°C° 0.2 mm 5 m/S 744 mmHg 75%
    18:00 +8°C° 0 mm 4 m/S 745 mmHg 80%
    19:00 +8°C° 0 mm 3 m/S 745 mmHg 85%
    20:00 +7°C° 0 mm 3 m/S 745 mmHg 90%
    21:00 +5°C° 0 mm 3 m/S 745 mmHg 92%
    22:00 +6°C° 0 mm 2 m/S 746 mmHg 93%
    23:00 +6°C° 0 mm 2 m/S 746 mmHg 95%

    27 September, Donnerstag

    Zeit Temperatur Niederschläge Wind Luftdruck Luftfeuchtigkeit
    00:00 +6°C° 0 mm 2 m/S 746 mmHg 95%
    01:00 +6°C° 0 mm 2 m/S 746 mmHg 96%
    02:00 +6°C° 0 mm 2 m/S 746 mmHg 96%
    03:00 +6°C° 0 mm 2 m/S 746 mmHg 96%
    04:00 +6°C° 0 mm 2 m/S 746 mmHg 96%
    05:00 +6°C° 0 mm 2 m/S 745 mmHg 96%
    06:00 +7°C° 0 mm 2 m/S 745 mmHg 93%
    07:00 +7°C° 0 mm 2 m/S 745 mmHg 91%
    08:00 +8°C° 0 mm 2 m/S 745 mmHg 89%
    09:00 +10°C° 0 mm 3 m/S 745 mmHg 81%
    10:00 +12°C° 0 mm 3 m/S 745 mmHg 74%
    11:00 +14°C° 0 mm 3 m/S 745 mmHg 66%
    12:00 +14°C° 0 mm 3 m/S 744 mmHg 62%
    13:00 +16°C° 0 mm 3 m/S 744 mmHg 58%
    14:00 +17°C° 0 mm 3 m/S 743 mmHg 55%
    15:00 +17°C° 0 mm 3 m/S 742 mmHg 58%
    16:00 +16°C° 0 mm 3 m/S 742 mmHg 60%
    17:00 +16°C° 0 mm 3 m/S 741 mmHg 63%
    18:00 +14°C° 0 mm 3 m/S 741 mmHg 67%
    19:00 +12°C° 0 mm 3 m/S 741 mmHg 70%
    20:00 +10°C° 0 mm 4 m/S 741 mmHg 73%
    21:00 +10°C° 0 mm 4 m/S 740 mmHg 73%
    22:00 +10°C° 0 mm 4 m/S 740 mmHg 72%
    23:00 +10°C° 0 mm 4 m/S 740 mmHg 71%
    Mehr zeigen